Weather in Ensenada

Mexico     31°51′51″N   116°36′14″W
В апреле 2022 года жителям России запретили посещать сайт meteo.paraplan.net по решению Генеральной прокуратуры. Аудитория сайта уменьшилась в 10 раз. Владельцы сайта не видят смысла в поддержке погодного сервера в таких условиях. Сайт будет закрыт в октябре.
temp.,
°C
wind,
m/s
gust,
m/s
humid.,
%
clouds,
%
prec.,
mm/h
press.,
hPa
HPBL,
m
2 october, sun
sun223:00+16nw118927 0.0 1013207
02:00+16wnw118926 0.0 1012182
05:00+15nw119226 0.0 1012138
08:00+17nw118525 0.0 1014247
11:00+22w32634 0.0 1014515
14:00+23wnw436126 0.0 1013633
17:00+19wnw337726 0.0 1013436
20:00+17wnw118914 0.0 1014160
3 october, mon
mon323:00+16wnw219227 0.0 1015154
02:00+16wnw119442 0.0 1014116
05:00+16nw119530 0.0 101475
08:00+18nw11855 0.0 1015144
11:00+23w32624 0.0 1015490
14:00+24wnw426015 0.0 1013484
17:00+21wnw337426 0.0 1012370
20:00+17nw119348 0.0 1014182
4 october, tue
tue423:00+18nw11891 0.0 101443
02:00+18nw11913 0.0 101315
05:00+17wnw119413 0.0 101213
08:00+19n018415 0.0 1013103
11:00+26w31510 0.0 1013443
14:00+24w43613 0.0 1012437
17:00+23wnw326442 0.0 1012330
20:00+21wnw10731 0.0 101367
5 october, wed
wed523:00+19w11820 0.0 101414
02:00+19wnw11830 0.0 101312
05:00+18wnw11871 0.0 101212
08:00+20sw11792 0.0 101494
11:00+25w32550 0.0 1014457
14:00+27w43524 0.0 1013580
17:00+23w326518 0.0 1013390
20:00+20w11820 0.0 101550
6 october, thu
thu623:00+19nnw01860 0.0 101521
02:00+19n11830 0.0 101412
05:00+18w11860 0.0 101411
08:00+21e01700 0.0 101584
11:00+27w32480 0.0 1015553
14:00+26w434914 0.0 1014532
17:00+24wnw225831 0.0 1013197
20:00+21nw11690 0.1 101521